Weather History for West Plains, MO

Change the Weather History Date:

Saturday, November 10, 2012

  Actual Average Record
Temperature  
Mean Temperature 62 °F 49 °F  
Max Temperature 71 °F 60 °F 76 °F (1949)
Min Temperature 53 °F 39 °F 8 °F (1991)
Degree Days  
Heating Degree Days 3 16  
Month to date heating degree days 149 143  
Since 1 July heating degree days 517 446  
Cooling Degree Days 0 0  
Month to date cooling degree days 0 0  
Year to date cooling degree days 1739 1352  
Growing Degree Days 12 (Base 50)    
Moisture  
Dew Point 49 °F    
Average Humidity 66    
Maximum Humidity 81    
Minimum Humidity 45    
Precipitation  
Precipitation 0.00 in 0.16 in 1.74 in (1974)
Month to date precipitation 0.31 1.41  
Year to date precipitation 28.57 39.41  
Sea Level Pressure  
Sea Level Pressure 30.02 in    
Wind  
Wind Speed 12 mph (South)    
Max Wind Speed 21 mph    
Max Gust Speed 30 mph    
Visibility 10 miles    
Events      
T = Trace of Precipitation, MM = Missing Value Source: NWS Daily Summary

Daily Weather History Graph

Daily Weather History Graph

Search for Another Location

Airport:

Trip Planner

Search our weather history database for the weather conditions in past years. The results will help you decide how hot, cold, wet, or windy it might be!

Date:

Astronomy

Nov. 10, 2012 Rise Set
Actual Time 6:41 AM CST 5:01 PM CST
Civil Twilight 6:13 AM CST 5:28 PM CST
Nautical Twilight 5:42 AM CST 5:59 PM CST
Astronomical Twilight 5:12 AM CST 6:30 PM CST
Moon 2:51 AM CST (11/10) 2:44 PM CST (11/10)
Length of Visible Light 11h 15m
Length of Day
10h 20m
Waning Crescent, 14% of the Moon is Illuminated
Nov 10
Waning Crescent
Nov 13
New
Nov 20
First Quarter
Nov 28
Full
Dec 6
Last Quarter

Hourly Weather History & Observations

Time (CST) Temp. Dew Point Humidity Pressure Visibility Wind Dir Wind Speed Gust Speed Precip Events Conditions
12:53 AM 55.0 °F 41.0 °F 59% 30.03 in 10.0 mi South 9.2 mph - N/A   Clear
1:53 AM 54.0 °F 41.0 °F 62% 30.02 in 10.0 mi South 9.2 mph - N/A   Clear
2:53 AM 54.0 °F 42.1 °F 64% 30.03 in 10.0 mi South 6.9 mph - N/A   Clear
3:53 AM 53.1 °F 43.0 °F 69% 30.02 in 10.0 mi SSE 4.6 mph - N/A   Partly Cloudy
4:53 AM 53.1 °F 45.0 °F 74% 30.04 in 10.0 mi SSE 4.6 mph - N/A   Clear
5:53 AM 53.1 °F 46.0 °F 77% 30.04 in 10.0 mi South 6.9 mph - N/A   Clear
6:53 AM 53.1 °F 46.9 °F 80% 30.06 in 10.0 mi South 6.9 mph - N/A   Clear
7:53 AM 57.0 °F 50.0 °F 77% 30.07 in 10.0 mi South 11.5 mph - 0.00 in   Clear
8:53 AM 57.9 °F 52.0 °F 81% 30.08 in 10.0 mi South 12.7 mph 18.4 mph N/A   Clear
9:53 AM 62.1 °F 53.1 °F 72% 30.08 in 10.0 mi South 15.0 mph - N/A   Clear
10:53 AM 66.0 °F 53.1 °F 63% 30.06 in 10.0 mi South 11.5 mph - N/A   Clear
11:53 AM 68.0 °F 53.1 °F 59% 30.03 in 10.0 mi South 16.1 mph 21.9 mph N/A   Clear
12:53 PM 70.0 °F 51.1 °F 51% 30.00 in 10.0 mi South 15.0 mph 23.0 mph N/A   Clear
1:53 PM 71.1 °F 48.9 °F 45% 29.99 in 10.0 mi South 16.1 mph 26.5 mph N/A   Clear
2:53 PM 68.0 °F 51.1 °F 55% 29.98 in 10.0 mi SSE 12.7 mph - N/A   Clear
3:53 PM 68.0 °F 51.1 °F 55% 29.98 in 10.0 mi South 15.0 mph 20.7 mph N/A   Clear
4:53 PM 64.0 °F 52.0 °F 65% 29.99 in 10.0 mi SSE 13.8 mph - N/A   Clear
5:53 PM 63.0 °F 52.0 °F 67% 30.01 in 10.0 mi SSE 10.4 mph - N/A   Clear
6:53 PM 62.1 °F 51.1 °F 67% 30.00 in 10.0 mi SE 12.7 mph 19.6 mph N/A   Clear
7:53 PM 62.1 °F 52.0 °F 70% 30.01 in 10.0 mi South 11.5 mph 20.7 mph N/A   Clear
8:53 PM 62.1 °F 51.1 °F 67% 30.00 in 10.0 mi SSE 15.0 mph 21.9 mph N/A   Clear
10:53 PM 61.0 °F 51.1 °F 70% 29.97 in 10.0 mi SSE 17.3 mph 25.3 mph N/A   Mostly Cloudy
11:53 PM 60.1 °F 50.0 °F 69% 29.96 in 10.0 mi SSE 15.0 mph 20.7 mph N/A   Clear